CAPE
753 1091 1636 1816 1698 1490 1371 1286 1169 1089 1060 1091 1066 1026 969 939 949 888 1036 878 809 371 19 0 15 0 0 0 0 33 52 44 23 7 7 8 24 27 15 7 12 3 13
736 513 762 1759 1723 1536 1473 1294 1227 1126 1124 1127 1070 1002 926 923 953 1134 1024 896 634 154 0 0 0 0 0 0 17 130 105 20 9 0 1 12 17 32 35 25 41 19 20
363 25 421 1447 1758 1669 1568 1513 1335 1232 1182 1129 1000 948 904 977 1171 1073 979 689 365 141 0 0 0 0 0 0 66 64 72 47 24 0 0 0 2 14 15 15 22 15 19
138 93 676 952 1387 1642 1526 1456 1301 1247 1101 973 929 933 980 1145 1201 1095 819 429 258 154 0 0 0 0 0 0 16 33 43 3 0 0 0 0 0 9 10 9 14 21 31
2 18 36 881 1212 1502 1454 1321 1109 1013 881 811 847 983 1142 1261 1250 1168 713 266 286 210 0 0 0 0 0 0 7 22 13 0 0 0 0 0 0 5 8 6 8 13 27
5 387 299 881 1112 1466 1518 1314 1008 862 723 709 858 1023 1211 1233 1204 1156 715 338 344 231 0 0 0 0 0 0 0 0 0 0 0 0 0 0 0 3 6 8 9 12 14
489 469 525 333 1052 1418 1488 1054 795 673 585 708 861 996 1176 1204 1091 1099 599 334 285 235 27 0 0 0 0 0 0 0 0 0 0 0 0 0 0 2 4 3 6 9 11
500 504 290 237 599 807 893 617 498 516 535 687 1018 1183 1280 1228 1036 1013 440 333 303 233 162 63 35 4 0 0 0 0 0 0 0 0 0 0 0 1 3 3 5 13 14
248 136 45 94 18 303 357 224 263 387 472 530 662 834 952 939 903 665 415 417 356 230 138 65 25 7 0 0 0 0 0 0 0 0 0 0 0 0 2 2 6 13 13
90 11 4 46 67 13 150 160 181 209 206 173 339 508 618 603 474 334 291 281 251 198 125 48 16 0 0 0 0 0 0 0 0 0 0 0 0 1 1 1 5 9 10
126 87 81 42 0 27 26 107 126 136 66 53 188 398 336 320 306 233 176 220 217 155 102 54 10 0 0 0 0 0 0 0 0 0 0 0 2 1 0 0 3 5 9
142 127 31 22 2 0 2 90 133 86 11 11 24 141 154 177 134 99 142 182 182 130 86 42 0 0 0 0 0 0 0 0 0 0 0 0 3 2 0 0 0 0 0
194 54 62 37 38 1 0 9 60 41 2 4 0 0 16 29 43 49 52 59 39 25 1 1 0 0 0 0 0 0 0 0 0 0 0 0 0 4 2 1 0 0 0
216 141 83 22 88 4 18 10 2 0 0 33 3 10 28 17 7 22 2 0 0 3 0 0 0 0 0 0 0 0 0 0 0 0 0 0 1 6 8 3 0 0 0
73 42 21 12 59 11 3 0 1 4 1 20 49 65 82 62 33 23 2 2 0 0 0 0 0 0 0 0 0 0 0 0 0 0 0 0 0 8 7 5 0 0 0
8 41 13 28 13 10 13 0 0 11 3 34 89 121 152 109 61 79 21 5 0 0 0 0 0 0 0 0 0 0 0 0 0 0 0 0 0 1 0 0 0 0 0
15 34 22 54 24 6 20 21 5 3 22 37 89 145 171 203 90 97 30 20 5 0 0 0 0 0 0 0 0 0 0 0 0 0 0 0 0 0 0 0 0 0 0
6 12 3 5 6 5 3 13 6 4 0 2 59 115 153 189 132 173 106 63 20 0 0 0 0 0 0 0 0 0 0 0 0 0 0 0 0 0 0 0 0 0 0
4 3 0 0 6 16 21 15 17 8 6 3 24 68 82 109 144 177 153 64 5 0 0 5 0 0 0 0 0 0 0 0 0 0 0 0 0 0 0 0 0 0 0
0 3 5 0 0 0 0 0 0 0 21 0 12 1 18 26 128 223 149 81 2 0 8 3 6 7 0 0 0 0 0 0 0 0 0 0 0 0 0 0 0 0 0
0 0 0 0 0 0 0 0 0 7 0 0 0 0 55 226 224 214 156 69 31 10 13 0 7 5 0 0 0 0 0 0 0 0 0 0 0 0 0 0 0 0 0
0 0 0 0 0 0 0 0 0 0 0 0 0 98 137 222 342 267 192 113 73 25 5 0 0 0 0 0 0 0 0 0 0 0 0 0 0 0 0 0 0 0 0
0 0 0 0 0 0 0 0 0 0 0 0 3 110 163 220 372 364 239 169 164 57 21 0 1 0 0 0 0 0 0 0 0 0 0 0 0 0 0 0 0 0 0
0 0 0 0 0 0 0 0 0 0 0 0 0 28 192 268 338 318 303 239 158 75 3 0 3 26 19 7 5 0 0 0 0 0 0 0 0 0 0 0 0 0 0
0 0 0 0 11 13 28 29 20 14 0 0 66 163 207 260 349 415 345 210 162 68 4 12 34 8 11 4 0 8 2 0 0 0 0 0 0 0 0 0 0 0 0
0 0 0 22 31 44 63 61 113 28 3 0 76 261 285 294 380 406 254 255 191 91 33 27 8 28 8 4 0 2 0 2 0 0 0 0 0 0 0 0 0 0 0
CIN
-67 -1 -1 -2 -65 -47 -71 -79 -90 -79 -77 -56 -53 -42 -26 -4 0 0 0 0 0 -1 -1 0 -23 0 0 0 0 0 0 0 -3 0 0 0 0 0 0 0 0 -1 0
-122 -2 0 0 -6 -22 -37 -55 -57 -61 -47 -36 -24 -18 -6 0 0 0 0 0 0 -25 0 0 0 0 0 0 -5 0 -7 -2 -4 0 0 0 0 0 0 0 0 0 0
-301 -86 -56 -11 0 0 -2 -9 -20 -29 -29 -17 -18 -6 0 0 0 0 0 0 0 -25 0 0 0 0 0 0 -3 -4 -7 -10 -2 0 0 0 -1 0 0 0 0 -1 0
-398 -426 -123 -17 -2 0 0 -2 -11 -13 -20 -22 -11 -3 0 0 0 0 0 0 0 -22 0 0 0 0 0 0 -36 -30 -12 -4 0 0 0 0 0 0 0 0 0 0 0
-71 -496 -347 -12 -6 0 0 -4 -24 -38 -44 -39 -29 -6 0 0 0 0 -1 -3 -2 -10 0 0 0 0 0 0 -85 -72 -47 -4 0 0 0 0 0 0 0 0 0 0 0
-175 -179 -24 -16 -12 0 0 -10 -33 -47 -78 -68 -29 -1 0 0 0 0 0 -1 -2 -20 0 0 0 0 0 0 0 0 0 0 0 0 0 0 0 0 0 0 0 0 0
-108 -81 -192 -7 -1 0 0 -16 -28 -45 -63 -44 -11 0 0 0 -1 0 -1 -11 -21 -34 -14 0 0 0 0 0 0 -24 0 0 0 0 0 0 0 0 0 0 0 0 0
-39 -1 -15 -2 -6 -4 0 -13 -35 -45 -41 -19 0 0 0 0 -1 0 -18 -27 -30 -36 -46 -92 -145 -100 0 0 0 0 0 0 0 0 0 0 0 0 0 0 0 0 0
-40 -12 -49 -17 -20 -1 -21 -4 0 -23 -19 -13 -4 0 -2 -2 -1 -2 -26 -25 -22 -41 -75 -109 -193 -275 0 0 0 0 0 0 0 0 0 0 0 0 0 0 0 0 0
-81 -183 -96 -47 -21 -25 -1 0 0 -18 -34 -31 -5 -3 -3 -3 -9 -31 -43 -39 -42 -68 -84 -174 -257 0 0 0 0 0 0 0 0 0 0 0 0 0 0 0 0 0 0
-41 -31 -28 -86 0 -53 0 -5 -3 -3 -43 -39 -6 -18 -3 -4 -12 -36 -99 -71 -93 -79 -97 -177 -284 0 0 0 0 0 0 0 0 0 0 0 0 0 0 0 0 0 0
-41 -36 -27 -25 -44 -8 -1 -6 -8 -7 -44 -47 -38 -10 -35 -24 -55 -165 -115 -100 -104 -93 -121 -177 -17 0 0 0 0 0 0 0 0 0 0 0 0 0 0 0 0 0 0
-5 -10 -45 -29 -18 -5 0 -5 -10 -9 -9 -104 0 0 -158 -162 -209 -277 -264 -261 -260 -312 -46 -16 0 0 0 0 0 0 0 0 0 0 0 -1 0 0 0 0 0 0 0
-7 -7 -10 -40 -1 -12 -2 -1 -1 0 -1 -42 -28 -122 -98 -235 -274 -344 -230 0 -13 -88 0 0 0 0 0 0 0 0 0 0 0 0 0 0 0 0 0 0 0 0 0
-75 -30 -83 -8 -4 -1 -2 -1 0 0 -8 -40 -28 -85 -124 -213 -253 -264 -128 -260 0 0 0 0 0 0 0 0 0 0 0 0 0 0 0 0 0 0 0 0 0 0 0
-2 -127 -1 0 -7 -2 -8 0 0 0 -8 -23 -9 -35 -41 -113 -195 -157 -215 -276 0 -77 0 0 0 0 0 0 0 0 0 0 0 0 0 0 0 -1 0 0 0 0 0
-7 0 0 0 -1 0 -1 0 -2 0 -10 -7 -25 -20 -31 -67 -109 -110 -138 -205 -166 0 0 0 0 0 0 0 0 0 0 0 0 0 0 0 0 0 0 0 0 0 0
-1 0 0 0 -2 0 0 -3 -1 0 0 -1 -77 -68 -108 -77 -31 -40 -47 -102 -84 0 0 -4 0 0 0 0 0 0 0 0 0 0 0 0 0 0 0 0 0 0 0
-3 -1 0 0 0 0 -2 0 0 0 0 0 -111 -126 -115 -43 -12 -7 -25 -31 -6 0 0 -24 0 0 0 0 0 0 0 0 0 0 0 0 0 0 0 0 0 0 0
0 0 0 0 0 0 0 0 0 0 -33 0 -89 -21 -67 -37 -23 -23 -34 -17 -5 0 -25 -10 -12 -12 0 0 0 0 0 0 0 0 0 0 0 0 0 0 0 0 0
0 0 0 0 0 0 0 0 0 -32 -1 -1 0 0 -67 -58 -47 -28 -23 -19 -17 -28 -40 -1 -20 -14 0 0 0 0 0 0 0 0 0 0 0 0 0 0 0 0 0
0 0 0 0 0 0 0 0 0 0 0 0 0 -46 -51 -39 -32 -26 -22 -27 -22 -28 -48 0 -3 0 0 0 0 0 0 0 0 0 0 0 0 0 0 0 0 0 0
0 0 0 0 0 0 0 0 0 0 0 0 -9 -31 -39 -52 -31 -21 -34 -15 -22 -21 -41 0 -14 0 0 0 0 0 0 0 0 0 0 0 0 0 0 0 0 0 0
0 0 0 0 0 0 0 0 0 0 0 0 0 -86 -32 -36 -31 -30 -24 -15 -23 -28 -32 0 -12 -3 0 -2 -1 0 0 0 0 0 0 0 0 0 0 0 0 0 0
0 0 0 0 -126 -109 -125 -116 -113 -112 0 0 -117 -60 -48 -34 -26 -14 -27 -38 -20 -47 -26 -3 0 -2 -2 -1 -1 0 -2 0 0 0 0 0 0 0 0 0 0 0 0
0 0 0 -210 -187 -115 -92 -113 -64 -94 -22 0 -114 -68 -54 -34 -39 -22 -35 -42 -38 -17 -36 -11 -4 -1 -5 0 0 0 0 0 0 0 0 0 0 0 0 0 0 0 0
Wind_Speed
50 51 33 37 42 30 30 36 41 39 39 40 42 43 46 41 38 38 37 38 36 34 nan nan nan nan nan nan nan nan nan nan nan nan nan nan nan nan nan nan nan nan nan
50 43 32 40 24 24 31 37 43 44 42 41 41 46 44 42 38 36 37 37 36 34 nan nan nan nan nan nan nan 28 26 nan nan nan nan nan nan nan nan nan nan nan nan
56 nan 44 34 25 27 33 41 44 45 44 43 42 42 41 39 37 38 37 38 39 37 nan nan nan nan nan nan nan nan nan nan nan nan nan nan nan nan nan nan nan nan nan
56 nan 48 15 27 29 38 41 43 44 45 44 43 43 39 38 37 38 39 37 39 39 nan nan nan nan nan nan nan nan nan nan nan nan nan nan nan nan nan nan nan nan nan
nan nan nan 13 24 31 33 37 42 45 47 48 47 43 38 34 38 40 41 38 37 38 nan nan nan nan nan nan nan nan nan nan nan nan nan nan nan nan nan nan nan nan nan
nan 51 57 24 28 30 32 41 45 48 49 49 43 40 37 36 37 40 41 39 37 39 nan nan nan nan nan nan nan nan nan nan nan nan nan nan nan nan nan nan nan nan nan
35 36 38 22 35 33 41 48 48 49 49 46 42 42 41 41 40 39 42 40 37 37 nan nan nan nan nan nan nan nan nan nan nan nan nan nan nan nan nan nan nan nan nan
35 39 40 42 31 40 43 54 52 49 50 47 42 44 44 43 39 41 40 38 36 35 37 nan nan nan nan nan nan nan nan nan nan nan nan nan nan nan nan nan nan nan nan
29 39 nan nan nan 43 53 52 58 53 49 48 46 42 45 43 42 41 37 38 35 34 32 nan nan nan nan nan nan nan nan nan nan nan nan nan nan nan nan nan nan nan nan
nan nan nan nan nan nan 49 57 62 53 52 50 43 45 47 46 44 43 39 37 35 32 31 nan nan nan nan nan nan nan nan nan nan nan nan nan nan nan nan nan nan nan nan
16 nan nan nan nan nan nan 54 56 57 nan nan 46 45 38 36 38 39 39 38 41 37 30 nan nan nan nan nan nan nan nan nan nan nan nan nan nan nan nan nan nan nan nan
17 17 nan nan nan nan nan nan 32 nan nan nan nan 41 36 28 33 nan 37 44 36 31 nan nan nan nan nan nan nan nan nan nan nan nan nan nan nan nan nan nan nan nan nan
21 nan nan nan nan nan nan nan nan nan nan nan nan nan nan nan nan nan nan nan nan nan nan nan nan nan nan nan nan nan nan nan nan nan nan nan nan nan nan nan nan nan nan
24 27 nan nan nan nan nan nan nan nan nan nan nan nan nan nan nan nan nan nan nan nan nan nan nan nan nan nan nan nan nan nan nan nan nan nan nan nan nan nan nan nan nan
nan nan nan nan nan nan nan nan nan nan nan nan nan nan nan nan nan nan nan nan nan nan nan nan nan nan nan nan nan nan nan nan nan nan nan nan nan nan nan nan nan nan nan
nan nan nan nan nan nan nan nan nan nan nan nan nan 28 24 22 nan nan nan nan nan nan nan nan nan nan nan nan nan nan nan nan nan nan nan nan nan nan nan nan nan nan nan
nan nan nan nan nan nan nan nan nan nan nan nan nan 23 19 19 nan nan nan nan nan nan nan nan nan nan nan nan nan nan nan nan nan nan nan nan nan nan nan nan nan nan nan
nan nan nan nan nan nan nan nan nan nan nan nan nan 18 21 14 19 15 17 nan nan nan nan nan nan nan nan nan nan nan nan nan nan nan nan nan nan nan nan nan nan nan nan
nan nan nan nan nan nan nan nan nan nan nan nan nan nan nan 14 15 11 4 nan nan nan nan nan nan nan nan nan nan nan nan nan nan nan nan nan nan nan nan nan nan nan nan
nan nan nan nan nan nan nan nan nan nan nan nan nan nan nan nan 7 2 6 nan nan nan nan nan nan nan nan nan nan nan nan nan nan nan nan nan nan nan nan nan nan nan nan
nan nan nan nan nan nan nan nan nan nan nan nan nan nan nan 4 6 6 10 nan nan nan nan nan nan nan nan nan nan nan nan nan nan nan nan nan nan nan nan nan nan nan nan
nan nan nan nan nan nan nan nan nan nan nan nan nan nan 9 7 9 11 14 16 nan nan nan nan nan nan nan nan nan nan nan nan nan nan nan nan nan nan nan nan nan nan nan
nan nan nan nan nan nan nan nan nan nan nan nan nan 5 8 13 15 16 15 18 19 nan nan nan nan nan nan nan nan nan nan nan nan nan nan nan nan nan nan nan nan nan nan
nan nan nan nan nan nan nan nan nan nan nan nan nan nan 12 15 17 18 19 19 22 nan nan nan nan nan nan nan nan nan nan nan nan nan nan nan nan nan nan nan nan nan nan
nan nan nan nan nan nan nan nan nan nan nan nan nan 19 18 18 19 19 23 24 22 nan nan nan nan nan nan nan nan nan nan nan nan nan nan nan nan nan nan nan nan nan nan
nan nan nan nan nan nan nan nan 20 nan nan nan nan 16 16 16 16 16 22 23 25 nan nan nan nan nan nan nan nan nan nan nan nan nan nan nan nan nan nan nan nan nan nan
Wind_Direction
233 234 245 249 254 258 263 262 262 263 264 269 271 274 277 277 278 279 277 276 273 271 nan nan nan nan nan nan nan nan nan nan nan nan nan nan nan nan nan nan nan nan nan
270 218 194 238 215 254 255 261 264 263 264 264 267 274 274 276 276 275 274 269 268 269 nan nan nan nan nan nan nan 276 280 nan nan nan nan nan nan nan nan nan nan nan nan
258 nan 205 230 225 236 251 255 256 261 263 264 266 270 275 279 279 279 274 269 269 266 nan nan nan nan nan nan nan nan nan nan nan nan nan nan nan nan nan nan nan nan nan
263 nan 239 208 223 234 244 249 256 260 263 267 271 272 275 279 281 278 275 272 271 269 nan nan nan nan nan nan nan nan nan nan nan nan nan nan nan nan nan nan nan nan nan
nan nan nan 210 241 235 247 256 262 268 271 273 275 275 282 280 278 278 276 276 274 270 nan nan nan nan nan nan nan nan nan nan nan nan nan nan nan nan nan nan nan nan nan
nan 276 276 235 242 250 251 260 259 262 265 273 276 282 284 279 276 275 277 277 273 269 nan nan nan nan nan nan nan nan nan nan nan nan nan nan nan nan nan nan nan nan nan
230 247 260 235 245 252 252 256 259 264 267 271 277 282 283 282 280 277 280 281 279 275 nan nan nan nan nan nan nan nan nan nan nan nan nan nan nan nan nan nan nan nan nan
241 234 225 209 212 254 253 252 257 257 265 269 272 277 279 285 285 281 282 283 281 278 272 nan nan nan nan nan nan nan nan nan nan nan nan nan nan nan nan nan nan nan nan
245 245 nan nan nan 206 245 247 249 252 255 259 264 267 274 278 280 279 279 279 278 283 286 nan nan nan nan nan nan nan nan nan nan nan nan nan nan nan nan nan nan nan nan
nan nan nan nan nan nan 208 232 239 244 249 254 256 267 266 270 270 272 275 282 279 279 283 nan nan nan nan nan nan nan nan nan nan nan nan nan nan nan nan nan nan nan nan
256 nan nan nan nan nan nan 206 216 237 nan nan 259 266 262 265 265 263 274 279 288 281 280 nan nan nan nan nan nan nan nan nan nan nan nan nan nan nan nan nan nan nan nan
284 251 nan nan nan nan nan nan 220 nan nan nan nan 256 251 271 266 nan 284 275 291 274 nan nan nan nan nan nan nan nan nan nan nan nan nan nan nan nan nan nan nan nan nan
270 nan nan nan nan nan nan nan nan nan nan nan nan nan nan nan nan nan nan nan nan nan nan nan nan nan nan nan nan nan nan nan nan nan nan nan nan nan nan nan nan nan nan
260 267 nan nan nan nan nan nan nan nan nan nan nan nan nan nan nan nan nan nan nan nan nan nan nan nan nan nan nan nan nan nan nan nan nan nan nan nan nan nan nan nan nan
nan nan nan nan nan nan nan nan nan nan nan nan nan nan nan nan nan nan nan nan nan nan nan nan nan nan nan nan nan nan nan nan nan nan nan nan nan nan nan nan nan nan nan
nan nan nan nan nan nan nan nan nan nan nan nan nan 266 277 289 nan nan nan nan nan nan nan nan nan nan nan nan nan nan nan nan nan nan nan nan nan nan nan nan nan nan nan
nan nan nan nan nan nan nan nan nan nan nan nan nan 266 265 279 nan nan nan nan nan nan nan nan nan nan nan nan nan nan nan nan nan nan nan nan nan nan nan nan nan nan nan
nan nan nan nan nan nan nan nan nan nan nan nan nan 259 256 281 276 250 175 nan nan nan nan nan nan nan nan nan nan nan nan nan nan nan nan nan nan nan nan nan nan nan nan
nan nan nan nan nan nan nan nan nan nan nan nan nan nan nan 201 167 144 154 nan nan nan nan nan nan nan nan nan nan nan nan nan nan nan nan nan nan nan nan nan nan nan nan
nan nan nan nan nan nan nan nan nan nan nan nan nan nan nan nan 147 173 235 nan nan nan nan nan nan nan nan nan nan nan nan nan nan nan nan nan nan nan nan nan nan nan nan
nan nan nan nan nan nan nan nan nan nan nan nan nan nan nan 38 328 302 273 nan nan nan nan nan nan nan nan nan nan nan nan nan nan nan nan nan nan nan nan nan nan nan nan
nan nan nan nan nan nan nan nan nan nan nan nan nan nan 6 329 304 295 287 280 nan nan nan nan nan nan nan nan nan nan nan nan nan nan nan nan nan nan nan nan nan nan nan
nan nan nan nan nan nan nan nan nan nan nan nan nan 337 336 326 317 310 301 287 293 nan nan nan nan nan nan nan nan nan nan nan nan nan nan nan nan nan nan nan nan nan nan
nan nan nan nan nan nan nan nan nan nan nan nan nan nan 336 334 328 320 313 300 300 nan nan nan nan nan nan nan nan nan nan nan nan nan nan nan nan nan nan nan nan nan nan
nan nan nan nan nan nan nan nan nan nan nan nan nan 346 350 343 329 326 330 319 302 nan nan nan nan nan nan nan nan nan nan nan nan nan nan nan nan nan nan nan nan nan nan
nan nan nan nan nan nan nan nan 5 nan nan nan nan 338 332 333 337 346 321 325 336 nan nan nan nan nan nan nan nan nan nan nan nan nan nan nan nan nan nan nan nan nan nan